Location: Newark
(31.5350°N, 35.0986°E)
Time: 22:26:18
(UTC+00:00)

Vanguard 1 - Pass Details

Date: 01 October 2019
Orbit: 653 x 3830 km, 34.3° (Epoch: 14 October)

Event Time Altitude Azimuth Distance (km) Brightness Sun altitude
Rises 16:30:26 0° 171° (S) 5,103 13.6 -14.7°
Reaches altitude 10° 16:36:38 10° 145° (SE) 4,824 13.2 -16.0°
Enters shadow 16:41:13 13° 126° (SE) 5,056 13.2 -17.0°
Maximum altitude 16:42:03 13° 122° (ESE) 5,131 - -17.2°
Drops below altitude 10° 16:48:28 10° 101° (E) 5,947 - -18.5°
Sets 16:58:27 0° 79° (E) 7,613 - -20.6°
